Flag for U.S.A. Weather past 2 weeks in Wheaton, Illinois, U.S.A.

Now
6 °F

Clear.


Feels Like: -8 °F
Forecast: -4 / 17 °F
Wind: 9 mph from Southwest

Location: Dupage Airport

Current Time: Feb 27, 2015 at 6:39:39 PM

Latest Report: Feb 27, 2015 at 5:52 PM


Visibility: 10 mi

Pressure: 30.66 "Hg

Humidity: 60%

Dew point: -5 °F

Location of WheatonLocation

Historic Weather in Wheaton — Graph

°F

Wheaton temperature yesterday

Maximum temperature yesterday: 19 °F (at 12:52 PM)
Minimum temperature yesterday: -2 °F (at 11:52 PM)
Average temperature yesterday: 12 °F

Past Weeks' High & Low Weather Summary

 TemperatureHumidityPressure
High31 °F (Feb 21, 1:52 PM)88% (Feb 25, 7:52 PM)30.76 "Hg (Feb 25, 7:52 PM)
Low-8 °F (Feb 19, 5:52 AM)28% (Feb 16, 1:52 PM)29.68 "Hg (Feb 24, 4:52 PM)
Average11 °F64%30.22 "Hg
* Reported Feb 12 4:52 PM — Feb 27 4:52 PM, Wheaton, Weather by CustomWeather, © 2015

Note: Actual official high and low records may vary slightly from our data, if they occured in-between our weather recording intervals... More about our weather records

Advertising

Wheaton weather history for previous 24 hours

 ConditionsComfort  
Time TempWeatherWind HumidityBarometerVisibility
4:52 PM
Fri, Feb 27
10 °FSunny.7 mph50%30.65 "Hg10 mi
3:52 PM11 °FSunny.8 mph51%30.64 "Hg10 mi
2:52 PM11 °FSunny.9 mph51%30.65 "Hg10 mi
1:52 PM12 °FSunny.10 mph48%30.65 "Hg10 mi
12:52 PM12 °FLight snow. Sunny.12 mph51%30.65 "Hg10 mi
11:52 AM12 °FSunny.14 mph48%30.66 "Hg10 mi
10:52 AM12 °FSunny.10 mph44%30.65 "Hg10 mi
9:52 AM11 °FSunny.No wind48%30.63 "Hg10 mi
8:52 AM4 °FSunny.7 mph60%30.62 "Hg10 mi
7:52 AM1 °FSunny.9 mph65%30.60 "Hg10 mi
6:52 AM-5 °FSunny.No wind75%30.58 "Hg10 mi
5:52 AM-7 °FClear.6 mph75%30.56 "Hg10 mi
4:52 AM-5 °FClear.No windN/A30.54 "Hg10 mi
3:52 AM-3 °FClear.No windN/A30.52 "Hg10 mi
2:52 AM-5 °FClear.5 mph75%30.51 "Hg10 mi
1:52 AM-3 °FClear.No windN/A30.50 "Hg10 mi
12:52 AM-2 °FClear.No windN/A30.48 "Hg10 mi
11:52 PM
Thu, Feb 26
-2 °FClear.7 mph65%30.47 "Hg10 mi
10:52 PM1 °FClear.7 mph65%30.46 "Hg10 mi
9:52 PM2 °FClear.3 mph65%30.46 "Hg10 mi
8:52 PM5 °FClear.8 mph60%30.45 "Hg10 mi
7:52 PM6 °FClear.10 mph60%30.43 "Hg10 mi
6:52 PM8 °FClear.8 mph57%30.41 "Hg10 mi
Weather by CustomWeather, © 2015

See weather overviewHow to use our weather pages